Location: Passau
(48.5830°N, 13.4830°E)
Time: 19:18:24
(UTC+02:00)

Envisat - Pass Details

Date: 21 April 2024
Orbit: 762 x 764 km, 98.3° (Epoch: 29 May)

Event Time Altitude Azimuth Distance (km) Brightness Sun altitude
Rises 03:39:01 0° 23° (NNE) 3,240 7.6 -20.5°
Reaches altitude 10° 03:41:38 10° 34° (NE) 2,309 6.7 -20.2°
Maximum altitude 03:46:01 29° 94° (E) 1,392 4.7 -19.7°
Drops below altitude 10° 03:50:21 10° 153° (SSE) 2,292 5.3 -19.3°
Enters shadow 03:51:12 - 158° (SSE) 2,581 5.5 -19.2°
